CAPE
108 89 158 335 622 273 895 941 984 1476 1185 1019 735 389 491 513 553 632 1371 696 397 615 1017 1477 1381 1642 1975 1884 1283 1194 1317 1325 928 798 988 1124 1403 1253 1191 914 767 726 1005
126 130 251 351 504 438 635 881 1099 1081 761 364 469 606 378 453 870 792 966 1475 704 386 521 924 1354 1262 1442 2158 2054 1592 1652 1305 1102 719 835 934 966 1107 1011 848 773 766 1024
231 196 178 424 474 856 1224 1084 960 764 1051 322 478 273 267 151 462 779 817 1085 1449 842 325 353 594 643 1017 1641 1676 1847 1705 1043 768 816 744 600 624 795 803 844 732 809 900
211 954 348 415 975 931 314 259 156 203 451 299 182 125 125 129 523 484 807 1025 847 1057 903 684 615 752 1126 1242 1614 1694 1759 871 751 602 436 595 734 724 739 715 773 779 844
521 1288 252 489 775 444 340 214 298 327 535 334 53 130 216 181 207 332 602 877 922 854 1061 925 722 754 522 988 1587 1564 1649 1078 615 342 498 278 784 722 768 843 862 806 736
514 1373 133 714 1121 323 994 683 659 1224 388 1108 81 31 7 216 165 452 249 702 967 1195 1036 1466 709 890 420 531 1086 1472 1289 1038 778 536 671 172 296 465 545 556 634 648 677
706 1388 190 754 508 640 1780 1153 1208 1171 423 530 463 264 492 314 514 327 213 721 900 754 912 1548 1769 838 14 403 927 1035 1210 951 689 420 253 149 293 335 397 400 404 476 455
1086 1202 1397 617 804 690 1391 1550 1355 1046 680 818 92 78 33 31 6 124 47 708 817 1085 1099 1109 1481 1779 900 603 1590 762 478 809 682 492 316 146 177 207 206 149 151 216 291
1182 1226 1320 1522 1802 1462 1528 1558 1205 1229 754 151 789 378 393 593 103 92 264 262 389 759 722 1139 1482 2171 1546 1514 1989 960 330 590 744 622 513 174 170 159 141 113 91 76 86
1154 1129 1188 1282 1887 1147 1678 1047 571 1316 1370 506 343 528 697 803 193 47 158 104 74 589 949 657 889 1476 2027 1899 1038 1400 152 99 411 702 590 331 219 273 314 247 113 58 50
1310 1236 1069 1181 1457 1631 951 1285 1468 1376 1344 556 196 37 16 137 864 427 133 185 170 64 118 1029 533 1142 1498 1617 1123 347 63 1 275 510 586 429 316 387 475 338 146 55 0
1196 1440 933 1237 1268 1213 1064 1217 1303 1102 1110 1144 1158 428 29 14 22 163 109 79 15 2 109 25 769 591 1152 1458 1315 517 138 78 212 389 593 489 465 596 628 429 224 3 0
834 1340 1449 1502 1404 1604 1615 1222 1316 1092 1234 817 903 581 77 41 47 61 56 18 14 8 14 24 821 579 1059 1551 1143 905 315 216 182 314 369 317 302 370 361 290 67 6 0
499 1246 1608 1204 1432 1438 1679 1632 1402 1525 1425 1293 1009 1024 678 400 58 56 64 91 117 30 11 35 19 572 1198 2016 1147 610 809 207 158 99 87 102 111 111 83 28 0 0 0
139 683 1127 1877 1536 1772 1819 1841 1504 1481 1502 1540 876 1058 1384 607 261 90 68 282 122 101 39 346 217 452 900 1493 1161 1117 1359 262 66 8 3 0 0 0 0 0 0 0 0
466 1301 1090 1088 1401 1416 1613 1853 1602 1522 1601 1713 1349 1084 1033 1068 704 870 575 218 189 426 419 792 666 1048 1033 1362 1047 1184 1666 398 0 4 0 0 0 0 0 0 0 0 0
805 1354 1707 1616 1784 1722 1832 1463 1685 1919 1636 1540 1965 1643 1469 1507 1194 1106 827 697 652 379 411 324 761 1113 1326 1785 1160 1743 822 840 97 0 0 0 0 0 0 0 0 0 0
894 1350 1538 1925 1730 1879 1896 1633 1779 1622 1580 1463 1571 1473 1429 1295 1317 1456 1410 1132 1086 827 832 693 512 686 1215 1437 1577 1565 857 1090 725 0 0 0 0 0 0 0 0 0 0
1713 1435 1575 1766 1642 1591 1686 1590 1735 1600 1553 1464 1423 1423 1251 1219 1287 1113 1113 1069 1099 832 797 753 400 649 901 1238 1654 1793 1637 1145 694 0 0 0 0 0 0 0 0 0 0
1959 1874 1713 1858 1791 1716 1659 1719 1754 1718 1580 1570 1643 1453 1339 1271 1243 1223 1295 1377 1200 1262 1241 1065 843 494 445 651 1552 1310 761 596 103 0 0 0 0 0 0 0 0 0 0
2176 2216 2189 1951 1812 1683 1421 1625 1668 1422 1566 1481 1578 1576 1558 1548 1174 1303 1380 1323 1283 1220 987 913 724 515 518 764 1560 1613 1003 200 28 28 2 0 0 0 0 0 0 0 0
2452 2465 2453 2282 2216 2043 227 256 631 1553 1413 1409 1267 1344 1447 1249 1158 845 774 847 1001 1388 1372 1101 971 575 463 825 1076 1469 1301 311 51 0 0 0 0 0 0 0 0 0 0
2734 2518 2576 2255 2034 1932 0 0 16 513 702 764 830 992 1138 963 744 964 912 601 446 446 516 1249 1470 1261 1037 1102 1063 1267 1353 421 290 95 1 3 0 0 0 0 0 0 0
2388 2208 2540 2437 2354 580 0 0 0 0 0 0 0 0 0 27 103 268 736 786 851 1129 1043 664 571 1245 1707 1604 1436 1175 1645 1120 734 242 9 3 1 0 0 0 0 0 0
2421 1748 1593 846 361 224 0 0 0 0 0 0 0 0 0 0 0 0 0 5 388 1020 886 838 843 705 752 529 639 1081 808 957 165 28 3 0 1 4 0 0 0 0 0
716 279 22 0 0 0 0 0 0 0 0 0 0 0 0 0 0 0 0 0 0 2 623 891 1143 439 205 368 283 422 415 750 288 38 2 0 4 2 1 2 1 0 0
CIN
-2 -2 -1 -4 -1 -10 -2 -4 -1 -3 -4 -8 -2 -1 -2 -5 -11 -5 -22 -70 -101 -116 -108 -82 -73 -49 -17 -4 -17 -30 -30 -26 -41 -32 -20 -9 -3 -11 -21 -46 -47 -41 -21
-2 -4 -2 -3 -2 -2 -2 -1 -5 -3 -8 -4 -3 -3 -2 -3 -7 -11 -15 -46 -79 -103 -122 -106 -78 -60 -44 -9 -6 -12 -10 -26 -33 -55 -57 -47 -35 -22 -33 -40 -41 -33 -16
-7 -2 -4 -2 -3 -2 -5 -3 -3 -6 -11 -4 -4 -5 -4 -5 -2 -5 -3 -4 -42 -74 -104 -115 -116 -112 -81 -40 -30 -20 -19 -36 -39 -42 -51 -63 -56 -42 -38 -33 -31 -25 -23
-3 -12 -3 -3 -4 -2 -5 -7 -3 -7 -3 -4 -1 -4 -4 -8 -8 -5 -2 -2 -2 -5 -69 -82 -87 -85 -79 -57 -36 -28 -24 -53 -43 -40 -46 -39 -35 -38 -38 -40 -34 -34 -34
-1 -4 -6 -5 -7 -3 -4 -10 -2 -5 -3 -3 -4 -7 -5 -6 -7 -24 -4 -3 -2 -10 -3 -71 -67 -79 -93 -62 -44 -37 -34 -47 -62 -73 -54 -86 -36 -37 -35 -31 -36 -41 -47
-1 -4 -5 -4 -4 -8 -12 -3 -10 -4 -7 -13 -6 -8 -3 -6 -3 -4 -2 -2 -5 -8 -1 -10 -63 -64 -88 -85 -60 -42 -48 -56 -57 -60 -44 -81 -73 -47 -41 -46 -50 -51 -49
-1 -4 -18 -8 -11 -10 -5 -8 -3 -8 -6 -76 -18 -88 -25 -3 -7 -2 -2 -7 -7 -4 -2 -2 -13 -107 -171 -113 -76 -54 -41 -48 -56 -67 -74 -78 -62 -60 -52 -54 -50 -41 -38
-1 0 -6 -5 -6 -3 -7 -1 -3 -13 -11 -27 -42 -23 -85 -98 -27 -31 -5 -3 -11 -32 -23 -12 -6 -19 -104 -76 -25 -63 -75 -52 -50 -58 -64 -74 -74 -66 -63 -65 -65 -53 -45
-1 -3 -2 -11 -1 -9 -5 -2 -6 -6 -3 -56 -7 -6 -3 -2 -32 -34 -8 -3 -12 -29 -11 -10 -3 -17 -43 -10 -13 -45 -82 -77 -54 -57 -56 -75 -68 -64 -57 -56 -59 -61 -56
-1 -1 -1 -2 -1 -3 -14 -1 -7 -4 -6 -3 -2 -3 -8 -7 -5 -6 -6 -46 -6 -15 -5 -7 -8 -22 -13 -11 -64 -20 -78 -110 -71 -46 -49 -60 -59 -50 -37 -34 -40 -47 -49
-1 -1 -1 -1 -1 -2 -2 -7 -7 -2 -3 -2 -3 -4 -7 -2 -7 -1 -12 -13 -19 -25 -4 -6 -24 -56 -21 -6 -109 -88 -125 -11 -90 -53 -36 -42 -41 -30 -19 -19 -28 -40 0
-2 -1 -2 -1 -2 -1 -5 -1 -2 -1 -1 -9 -7 -10 -2 -2 -2 -3 -4 -3 -3 -1 -14 -4 -15 -25 -4 -6 -31 -76 -118 -144 -108 -79 -43 -43 -33 -15 -4 -5 -15 -30 0
-5 -8 -14 -1 -1 -4 -1 -2 -1 -1 -1 -2 -1 -3 -4 -4 -9 -5 -9 -9 -2 -2 -5 -3 -9 -7 -15 -20 -48 -53 -115 -139 -132 -93 -68 -70 -62 -32 -21 -13 -54 -61 0
-4 -13 -16 -10 -2 -1 -1 -1 -2 -2 -1 -4 -1 -2 -2 -4 -16 -24 -19 -10 -8 -11 -3 -12 -3 -3 -6 -21 -38 -64 -83 -137 -144 -150 -139 -129 -117 -105 -96 -120 0 0 0
-11 -5 -1 -2 -1 0 -1 -1 -3 -3 -3 -2 -1 -2 -2 -1 -2 -18 -27 -4 -23 -26 -10 -4 -2 -3 -7 -10 -29 -10 -36 -121 -170 -214 -190 0 0 0 0 0 0 0 0
-20 -8 -2 -1 -1 -2 -2 -2 -3 -3 -9 -2 -2 -2 -4 -2 -3 -4 -16 -8 -4 -3 -4 -6 -18 -11 -4 -9 -33 -3 -9 -113 0 -142 0 0 0 0 0 0 0 0 0
-4 -8 -6 -1 -1 -2 -1 -6 -6 -6 -4 -9 -1 -2 -2 -2 -2 -2 -4 -10 -8 -3 -2 -4 -2 -5 -16 -4 -5 -2 -67 -35 -158 0 0 0 0 0 0 0 0 0 0
-25 -7 -5 -1 -1 -1 0 -3 -1 -1 -3 -4 -3 -4 -2 -2 -4 -8 -3 -4 -5 -14 -2 -2 -2 -3 -3 -4 -9 -3 -19 -3 -23 0 0 0 0 0 0 0 0 0 0
-6 -4 -4 -2 -3 -1 -1 -3 -2 -2 -1 -1 -1 -2 -2 -4 -7 -4 -5 -3 -3 -9 -9 -7 -3 -3 -5 -5 -24 -8 -1 -1 -27 0 0 0 0 0 0 0 0 0 0
-1 -1 -1 -1 -1 -1 0 -1 -1 -4 -7 -2 -2 -5 -6 -5 -4 -5 -4 -7 -10 -6 -3 -4 -2 -2 -2 -3 -24 -18 -35 -34 -97 0 0 0 0 0 0 0 0 0 0
-3 -3 -1 -1 -1 -1 -1 -2 -1 -4 -4 -5 -1 -1 -1 -2 -9 -7 -5 -5 -6 -8 -2 -1 -3 -5 -3 -6 -8 -7 -14 -83 -103 -34 0 0 0 0 0 0 0 0 0
-2 -1 -1 -1 -1 -3 -237 -178 -74 -2 -2 -1 -2 -1 0 -1 -2 -15 -15 -11 -14 -5 -5 -5 -2 -5 -4 -9 -16 -16 -5 -57 -98 0 0 -1 0 0 0 0 0 0 0
-1 -1 -2 -10 -7 -11 0 0 -178 -95 -45 -33 -20 -10 -5 -1 -4 -1 -4 -19 -35 -33 -25 -7 -5 -16 -12 -8 -5 -15 -3 -81 -67 -86 0 0 -1 -1 0 0 0 0 0
-3 -2 -1 -8 -3 -130 0 0 0 0 0 0 0 0 0 -49 -100 -43 -6 -1 -1 -4 -15 -26 -18 -14 -4 -7 -9 -7 -3 -16 -5 -42 -154 0 -1 0 0 0 0 0 0
-4 -18 -43 -100 -150 -153 0 0 0 0 0 0 0 0 0 0 0 0 -1 -1 -5 -1 -2 -10 -11 -20 -31 -55 -46 -11 -11 0 -37 -106 0 0 0 0 0 0 0 0 0
-78 -136 -223 0 0 0 0 0 0 0 0 0 0 0 0 0 0 0 0 0 0 -1 0 -1 -3 -56 -109 -72 -73 -21 -10 0 -15 -75 0 0 0 0 0 0 0 0 0
Wind_Speed
20 21 14 21 19 18 19 18 16 14 14 12 10 9 7 18 10 12 19 20 17 15 13 13 13 13 13 12 12 12 11 13 14 16 18 19 20 20 20 20 20 20 20
20 17 15 18 22 19 15 16 15 15 14 11 10 11 11 11 16 9 10 17 16 15 14 13 13 13 13 13 12 12 12 12 14 15 16 16 16 17 18 19 19 19 19
20 18 19 19 18 14 18 19 17 17 15 13 15 16 13 14 16 12 9 13 15 14 15 14 13 12 13 13 12 13 13 14 16 16 16 16 16 16 17 18 18 18 18
16 22 15 23 11 18 19 18 17 18 16 14 14 12 11 12 13 10 11 10 10 12 15 17 15 13 12 13 13 13 14 15 16 17 16 16 17 17 18 18 18 17 17
17 24 23 14 15 20 18 19 15 15 15 15 14 13 13 12 11 13 10 10 12 13 8 18 14 13 13 14 14 15 16 17 17 17 17 17 17 17 18 17 17 16 16
15 22 18 16 21 21 16 15 18 16 17 17 13 5 12 11 13 12 10 11 18 15 15 17 17 10 10 14 15 16 16 17 17 17 17 18 18 17 17 16 16 15 15
12 18 20 16 22 21 15 14 19 15 10 16 19 16 16 14 15 16 16 16 18 15 17 16 16 17 13 16 17 17 17 17 17 17 17 17 17 16 16 15 15 15 15
16 16 22 13 13 18 13 15 19 20 16 18 18 18 10 10 16 10 15 16 11 5 15 15 15 14 14 13 16 16 17 17 17 16 17 16 16 16 15 15 14 14 14
14 19 15 22 12 22 7 8 10 16 11 7 18 19 14 16 9 13 14 15 10 13 19 13 13 12 13 14 16 14 15 16 16 16 16 15 15 15 14 14 13 13 14
16 15 19 20 18 22 13 16 14 16 17 21 19 17 19 21 20 17 3 11 9 8 16 18 10 9 15 13 15 15 14 15 15 14 15 14 14 14 13 13 13 13 13
11 18 19 20 21 22 21 22 21 19 22 22 24 22 22 23 9 8 19 9 11 18 12 15 9 13 11 17 15 16 15 14 13 13 13 13 13 13 13 13 12 12 12
7 17 19 20 22 23 22 20 18 20 23 26 24 24 24 24 23 5 11 16 15 18 14 1 15 11 9 14 16 14 13 13 12 11 11 11 12 12 12 13 13 13 13
5 1 6 14 17 17 23 20 18 22 22 21 22 27 27 26 16 27 27 23 22 13 15 13 10 12 12 11 12 14 12 11 11 10 9 10 11 12 12 13 13 13 14
20 4 3 8 19 25 11 17 17 16 20 21 15 20 27 28 24 23 17 24 27 26 14 5 6 7 9 13 12 13 11 10 10 10 9 9 10 11 12 12 13 13 14
30 16 9 5 8 7 10 14 16 19 25 20 23 19 15 26 28 22 23 23 21 27 26 9 9 9 12 11 10 9 8 8 8 8 8 8 8 10 11 12 12 12 13
22 28 11 12 11 10 10 10 12 11 15 21 21 19 15 23 28 26 27 24 26 27 27 26 23 20 12 13 12 13 9 8 6 6 6 6 6 8 9 9 10 11 12
4 5 8 11 14 14 13 14 13 27 21 15 20 25 26 22 23 28 22 29 27 21 20 18 19 20 17 17 14 12 10 9 8 6 5 5 5 6 7 8 9 10 11
7 5 5 7 11 23 21 12 10 15 18 17 18 20 23 24 21 25 29 28 23 24 27 26 22 23 20 16 13 13 10 7 9 7 6 6 5 5 5 6 7 9 10
6 5 9 13 14 11 12 12 13 13 12 10 16 22 23 21 25 25 25 28 25 23 23 23 23 21 16 12 13 14 15 13 14 8 8 7 7 5 5 5 7 8 9
8 10 11 9 5 6 8 11 10 13 22 25 9 11 26 28 28 25 24 25 29 30 23 23 24 26 22 19 13 14 16 15 13 10 9 8 7 7 7 7 7 7 8
9 11 12 12 14 10 8 7 10 9 11 14 15 16 14 17 19 24 26 28 26 24 24 26 26 22 21 17 16 16 16 15 14 11 11 10 9 9 9 8 8 7 6
12 14 17 18 15 17 24 24 21 13 15 18 24 22 19 20 23 19 26 29 23 21 22 25 28 25 23 19 17 16 16 16 19 15 12 13 11 11 11 9 8 6 6
13 12 19 21 22 19 21 22 24 22 22 21 23 23 22 18 22 20 19 19 19 21 21 25 30 30 32 28 25 18 17 17 19 16 13 16 12 14 12 12 7 8 7
19 17 20 21 23 21 22 26 28 27 25 25 22 23 20 22 24 28 37 34 24 19 19 20 23 30 32 30 28 24 20 19 19 14 10 18 14 16 14 13 10 8 7
18 21 19 21 23 23 23 25 28 29 29 30 27 24 27 28 28 32 33 22 21 24 25 20 19 25 26 31 28 26 23 20 21 18 12 18 15 16 18 15 12 9 8
19 18 20 20 22 24 21 24 28 33 34 33 29 28 28 24 23 22 27 28 27 22 22 27 25 24 23 24 23 23 24 23 20 22 18 19 14 17 22 15 10 7 7
Wind_Direction
215 212 241 206 211 206 189 189 192 183 173 167 192 214 174 91 145 142 94 83 96 108 117 123 124 132 149 155 155 157 165 170 173 182 198 216 224 227 226 221 217 219 230
220 233 238 223 198 213 235 215 227 212 192 210 190 191 175 152 103 172 125 85 88 107 110 135 136 142 147 157 163 162 162 161 167 172 182 196 205 208 202 189 196 215 211
224 233 228 227 230 263 227 194 199 169 192 200 114 120 164 124 114 125 158 113 102 105 108 122 135 152 160 153 158 164 159 148 144 153 158 168 179 180 175 179 181 182 193
239 218 246 206 282 241 219 216 213 222 210 199 157 172 153 165 116 151 135 127 163 123 108 104 106 129 156 153 160 156 154 147 147 149 157 164 163 161 160 159 162 173 193
243 219 219 268 267 234 246 234 255 188 233 213 193 179 126 187 178 137 141 154 131 141 29 79 111 137 144 153 141 158 143 139 135 139 149 152 154 152 148 152 158 170 174
256 231 249 262 233 229 279 273 257 257 224 271 209 271 146 156 160 134 163 153 82 120 109 74 104 77 171 158 153 152 144 137 135 134 135 138 141 143 150 160 168 172 175
271 254 247 268 246 248 281 309 207 151 242 193 312 204 297 123 136 98 85 99 81 111 62 79 94 85 131 143 139 138 145 140 133 130 129 131 135 141 149 159 169 180 182
263 267 251 286 284 271 310 304 275 239 274 292 259 277 318 77 215 176 78 84 134 192 55 80 75 110 133 141 136 132 125 133 136 133 130 130 134 135 138 145 154 164 176
274 261 279 255 300 256 347 37 15 287 313 151 284 264 265 353 215 94 86 68 158 98 44 352 97 103 99 122 32 134 126 119 124 126 128 126 124 129 132 138 147 159 169
275 279 269 266 275 260 314 309 325 316 312 260 303 320 316 298 272 246 4 171 176 60 56 38 206 18 80 111 110 131 109 102 111 119 115 114 116 115 115 119 130 147 164
295 275 268 266 270 270 282 282 288 304 279 287 268 294 288 274 143 142 241 159 191 314 80 39 123 89 126 26 65 59 69 89 101 106 107 100 94 98 95 89 88 83 87
303 275 269 270 271 271 278 293 306 299 287 275 279 286 282 289 251 241 217 228 223 239 23 53 16 190 121 36 20 44 56 83 83 81 90 82 81 77 70 65 59 54 56
300 158 293 287 286 289 278 295 306 295 294 302 301 275 274 277 266 268 281 251 249 213 219 199 40 45 41 46 39 40 57 74 74 74 66 70 59 54 49 45 42 38 25
267 335 312 304 281 269 313 303 304 310 301 300 321 308 283 279 300 301 328 307 298 298 209 91 73 57 56 26 41 31 43 63 68 79 82 79 71 58 44 33 25 16 12
223 294 312 322 308 314 308 307 305 302 293 308 303 313 318 295 282 309 306 310 319 297 296 6 20 13 8 14 24 38 37 53 64 60 64 63 57 55 47 30 26 27 21
195 259 302 303 305 304 305 308 311 316 313 304 309 312 315 304 294 301 295 299 302 301 301 298 317 332 357 7 12 356 10 25 31 31 36 49 48 35 37 35 24 23 22
211 202 289 302 299 298 300 302 306 288 304 312 308 303 303 306 303 297 305 297 297 309 310 315 316 321 324 326 340 350 1 358 4 7 26 29 28 22 34 32 23 20 16
192 256 275 282 295 287 292 302 306 307 307 309 310 308 304 303 303 299 296 297 300 300 298 302 308 306 314 321 330 332 341 355 355 1 359 358 357 4 12 14 12 7 6
196 268 289 291 293 293 297 300 303 307 309 306 312 309 306 303 300 297 298 295 298 296 297 300 302 305 308 311 321 322 324 331 333 346 341 338 337 341 346 349 348 355 358
279 286 289 292 279 279 289 299 301 305 301 301 287 308 308 303 299 298 297 295 292 292 295 296 297 301 301 303 307 312 313 317 319 328 328 326 325 326 330 333 335 341 348
284 290 293 294 296 296 292 248 290 288 299 309 308 314 310 307 299 298 297 294 292 292 291 293 292 294 297 295 295 303 307 308 310 312 317 320 318 313 313 317 320 326 336
289 292 291 292 293 297 298 302 308 311 315 314 313 313 312 310 305 295 294 291 284 287 284 287 291 291 290 295 293 295 299 302 304 302 301 308 313 309 309 305 304 306 318
286 290 292 291 293 303 309 310 312 313 312 313 312 311 310 304 307 303 294 284 270 260 258 283 284 284 287 292 293 290 290 291 297 303 292 301 302 310 313 314 302 301 307
285 289 292 292 296 303 307 308 310 313 313 311 309 308 303 304 305 303 296 297 295 281 274 265 261 279 281 285 289 291 287 290 298 299 291 302 302 307 314 314 311 300 298
287 289 294 298 299 301 308 314 315 316 315 313 312 310 308 306 306 304 303 295 277 286 290 278 273 284 274 278 284 287 289 288 293 297 292 305 303 306 307 301 302 294 296
287 294 298 303 305 307 314 318 318 315 314 314 315 313 309 302 298 294 299 294 291 281 279 287 288 291 287 289 289 288 289 293 290 295 296 302 304 311 311 320 313 302 297